User: anonymous   Login
Location: Unspecified
(0.0000°N, 0.0000°E)
Time: 21:29:26
(UTC+00:00)
Language:

OBJECT U - Orbit

View from above orbital plane
View from above orbital plane
View from above satellite
View from above satellite

Ground track
Ground track

The orbit is defined by the following mean orbital elements,

1 57184U          26145.58284225 +.00000000 +00000-0 +23120-3 0 00003
2 57184  97.5088 204.0141 0011240 183.0906 177.0261 15.18661812    04
Epoch (UTC): 25 May 2026 13:59:17
Eccentricity: 0.0011240
inclination: 97.5088°
perigee height: 502 km
apogee height: 518 km
right ascension of ascending node: 204.0141°
argument of perigee: 183.0906°
revolutions per day: 15.18661812
mean anomaly at epoch: 177.0261°

The dashed part of the orbit path shows where the satellite is in the earth's shadow,  

DLR